レナード彗星

C/2022 R3 ( Leonard )

English version
Home page
Updated on October 14, 2023

---------------------------------------------------------------------

・ プロフィール

発見日 2022年9月15日
発見光度 18.9等
発見者 Gregory J. Leonard (Mt. Lemmon)

・ 写真集

・ 軌道要素

Epoch 2023 Sept. 13.0 TT = JDT 2460200.5
T 2023 Mar. 5.34493 TT                                  Rudenko
q   5.1290405            (2000.0)            P               Q
z  -0.0001713      Peri.   72.87081     +0.19147112     -0.97660559
 +/-0.0000061      Node     8.23863     +0.41283705     -0.01033856
e   1.0008785      Incl.   43.08280     +0.89045179     +0.21478974
>From 152 observations 2022 Sept. 15-2023 Sept. 27, mean residual 0".6.

・ 光度変化

        m1 = 8.5 + 5 logΔ + 10.0 log r

---------------------------------------------------------------------

軌道要素はM.P.E.C. 2023-S260に掲載されたものです。
光度グラフはComet for Windowsで作成したものです。

---------------------------------------------------------------------

Copyright(C) Seiichi Yoshida (comet@aerith.net). All rights reserved.